GSAT0225 (GALILEO 29)

Last updated on Wed Oct 29 2025 00:02:35 GMT+0000 (Coordinated Universal Time)

1 59598U 24079A 25301.12159604 .00000063 00000+0 00000+0 0 9994 2 59598 54.9715 107.5712 0002264 156.2597 204.8035 1.70474646 9360
UTC large
Height (km)
Speed (km/s)
/
Latitude / Longitude
Inclination (degrees)
Orbital Period (minutes)
Azimuth
Elevation
Range (km)
Doppler Factor

Next 0 passes for location: London (51.5072 / 0.1276)

Sorry there are no passes over London.